Вернуться в каталог

STARLINK-3825

АктивенСвязьVLEO
NORAD 52478·PAYLOAD·🇺🇸 United States

Запущен May 6, 2022 с Cape Canaveral Space Force Station

Loading…

Ближайшие Пролёты (ближайшие 24 часа)

TLE

СвежийSource: CelesTrak SupGP

Эпоха: Sep 15, 2026, 01:48 UTC

1 52478C 22049AD  26258.07548611  .00013627  00000+0  38995-3 0  2581
2 52478  53.1593 279.6508 0001192  78.1401  27.4710 15.35386848    18

Отслеживайте STARLINK-3825 в реальном времени с AllMySat

Download on the App Store